,,,PA_Meas_PMT16A,,PR_Meas_QMR101_102,,RH_Meas_QMH101,,SR_Meas_QMS101,,TA_Meas_QMH101,,GenWind,,GenWind,
date,time,status,PA,status,PR,status,RH,status,SR,status,TA,status,DirAvg,status,SpdAvg,
2010-04-21, 00:00:05,VALID,1001.1,VALID,0,VALID,90.1821,VALID,0,VALID,24.0134,VALID,108,VALID,0,
2010-04-21, 00:01:05,VALID,1001.08,VALID,0,VALID,90.3271,VALID,0,VALID,24.0153,VALID,108,VALID,0,
2010-04-21, 00:02:05,VALID,1001.04,VALID,0,VALID,90.411,VALID,0,VALID,23.9939,VALID,108,VALID,0,
2010-04-21, 00:03:05,VALID,1001.01,VALID,0,VALID,90.6017,VALID,0,VALID,23.9744,VALID,108,VALID,0,
2010-04-21, 00:04:05,VALID,1001.01,VALID,0,VALID,90.7314,VALID,0,VALID,23.9744,VALID,108,VALID,0,
2010-04-21, 00:05:05,VALID,1000.97,VALID,0,VALID,90.8077,VALID,0,VALID,23.9939,VALID,108,VALID,0,
2010-04-21, 00:06:05,VALID,1000.98,VALID,0,VALID,90.8917,VALID,0,VALID,23.9744,VALID,108,VALID,0,
2010-04-21, 00:07:05,VALID,1000.93,VALID,0,VALID,91.0443,VALID,0,VALID,23.9939,VALID,108,VALID,0,
2010-04-21, 00:08:05,VALID,1000.89,VALID,0,VALID,91.0214,VALID,0,VALID,24.0134,VALID,112,VALID,0,
2010-04-21, 00:09:05,VALID,1000.89,VALID,0,VALID,91.0977,VALID,0,VALID,24.0134,VALID,141,VALID,0,
2010-04-21, 00:10:05,VALID,1000.86,VALID,0,VALID,91.0061,VALID,0,VALID,24.0134,VALID,141,VALID,0,
2010-04-21, 00:11:05,VALID,1000.84,VALID,0,VALID,90.8459,VALID,0,VALID,24.0134,VALID,141,VALID,0,
2010-04-21, 00:12:05,VALID,1000.84,VALID,0,VALID,90.6551,VALID,0,VALID,24.0134,VALID,141,VALID,0,
2010-04-21, 00:13:05,VALID,1000.83,VALID,0,VALID,90.556,VALID,0,VALID,23.9939,VALID,141,VALID,0,
2010-04-21, 00:14:05,VALID,1000.86,VALID,0,VALID,90.4873,VALID,0,VALID,23.9939,VALID,141,VALID,0,
2010-04-21, 00:15:05,VALID,1000.84,VALID,0,VALID,90.3576,VALID,0,VALID,23.9939,VALID,141,VALID,0,
2010-04-21, 00:16:05,VALID,1000.86,VALID,0,VALID,90.1363,VALID,0,VALID,23.9531,VALID,136,VALID,0,
2010-04-21, 00:17:05,VALID,1000.85,VALID,0,VALID,89.8693,VALID,0,VALID,23.9549,VALID,133,VALID,0,
2010-04-21, 00:18:05,VALID,1000.84,VALID,0,VALID,89.793,VALID,0,VALID,23.9549,VALID,134,VALID,0,
2010-04-21, 00:19:05,VALID,1000.84,VALID,0,VALID,89.6633,VALID,0,VALID,23.9744,VALID,139,VALID,0,
2010-04-21, 00:20:05,VALID,1000.82,VALID,0,VALID,89.6023,VALID,0,VALID,23.9744,VALID,132,VALID,0,
2010-04-21, 00:21:05,VALID,1000.79,VALID,0,VALID,89.526,VALID,0,VALID,23.9744,VALID,130,VALID,0,
2010-04-21, 00:22:05,VALID,1000.77,VALID,0,VALID,89.4039,VALID,0,VALID,23.9744,VALID,131,VALID,0,
2010-04-21, 00:23:05,VALID,1000.75,VALID,0,VALID,89.4115,VALID,0,VALID,23.9726,VALID,131,VALID,0,
2010-04-21, 00:24:05,VALID,1000.71,VALID,0,VALID,89.4344,VALID,0,VALID,23.9744,VALID,131,VALID,0,
2010-04-21, 00:25:05,VALID,1000.69,VALID,0,VALID,89.4649,VALID,0,VALID,23.9549,VALID,131,VALID,0,
2010-04-21, 00:26:05,VALID,1000.65,VALID,0,VALID,89.5031,VALID,0,VALID,23.9354,VALID,131,VALID,0,
2010-04-21, 00:27:05,VALID,1000.66,VALID,0,VALID,89.5107,VALID,0,VALID,23.9354,VALID,131,VALID,0,
2010-04-21, 00:28:05,VALID,1000.65,VALID,0,VALID,89.6099,VALID,0,VALID,23.9159,VALID,131,VALID,0,
2010-04-21, 00:29:05,VALID,1000.65,VALID,0,VALID,89.6251,VALID,0,VALID,23.8945,VALID,131,VALID,0,
2010-04-21, 00:30:05,VALID,1000.64,VALID,0,VALID,89.8235,VALID,0,VALID,23.8963,VALID,131,VALID,0,
2010-04-21, 00:31:05,VALID,1000.68,VALID,0,VALID,89.9609,VALID,0,VALID,23.8768,VALID,127,VALID,0,
2010-04-21, 00:32:05,VALID,1000.63,VALID,0,VALID,90.1363,VALID,0,VALID,23.8768,VALID,114,VALID,0,
2010-04-21, 00:33:05,VALID,1000.66,VALID,0,VALID,90.144,VALID,0,VALID,23.8768,VALID,114,VALID,0,
2010-04-21, 00:34:05,VALID,1000.67,VALID,0,VALID,90.1058,VALID,0,VALID,23.8963,VALID,114,VALID,0,
2010-04-21, 00:35:05,VALID,1000.68,VALID,0,VALID,90.2126,VALID,0,VALID,23.8963,VALID,114,VALID,0,
2010-04-21, 00:36:05,VALID,1000.65,VALID,0,VALID,90.1745,VALID,0,VALID,23.9159,VALID,114,VALID,0,
2010-04-21, 00:37:05,VALID,1000.66,VALID,0,VALID,90.2126,VALID,0,VALID,23.9354,VALID,114,VALID,0,
2010-04-21, 00:38:05,VALID,1000.65,VALID,0,VALID,90.1668,VALID,0,VALID,23.9549,VALID,114,VALID,0,
2010-04-21, 00:39:05,VALID,1000.62,VALID,0,VALID,90.1516,VALID,0,VALID,23.9549,VALID,114,VALID,0,
2010-04-21, 00:40:05,VALID,1000.62,VALID,0,VALID,90.0906,VALID,0,VALID,23.9744,VALID,114,VALID,0,
2010-04-21, 00:41:05,VALID,1000.6,VALID,0,VALID,90.0753,VALID,0,VALID,23.9744,VALID,114,VALID,0,
2010-04-21, 00:42:05,VALID,1000.58,VALID,0,VALID,90.0448,VALID,0,VALID,23.9549,VALID,114,VALID,0,
2010-04-21, 00:43:05,VALID,1000.57,VALID,0,VALID,90.0753,VALID,0,VALID,23.9549,VALID,114,VALID,0,
2010-04-21, 00:44:05,VALID,1000.54,VALID,0,VALID,90.0371,VALID,0,VALID,23.9549,VALID,114,VALID,0,
2010-04-21, 00:45:05,VALID,1000.53,VALID,0,VALID,89.8006,VALID,0,VALID,23.9354,VALID,115,VALID,0,
2010-04-21, 00:46:05,VALID,1000.52,VALID,0,VALID,89.8388,VALID,0,VALID,23.9354,VALID,142,VALID,0,
2010-04-21, 00:47:05,VALID,1000.55,VALID,0,VALID,89.7243,VALID,0,VALID,23.914,VALID,139,VALID,0,
2010-04-21, 00:48:05,VALID,1000.55,VALID,0,VALID,89.8311,VALID,0,VALID,23.9549,VALID,138,VALID,0,
2010-04-21, 00:49:05,VALID,1000.55,VALID,0,VALID,89.7777,VALID,0,VALID,23.9744,VALID,138,VALID,0,
2010-04-21, 00:50:05,VALID,1000.53,VALID,0,VALID,89.5717,VALID,0,VALID,23.9744,VALID,138,VALID,0,
2010-04-21, 00:51:05,VALID,1000.52,VALID,0,VALID,89.4344,VALID,0,VALID,23.9549,VALID,138,VALID,0,
2010-04-21, 00:52:05,VALID,1000.49,VALID,0,VALID,89.4726,VALID,0,VALID,23.9354,VALID,138,VALID,0,
2010-04-21, 00:53:05,VALID,1000.49,VALID,0,VALID,89.4954,VALID,0,VALID,23.9354,VALID,138,VALID,0,
2010-04-21, 00:54:05,VALID,1000.44,VALID,0,VALID,89.5107,VALID,0,VALID,23.8963,VALID,138,VALID,0,
2010-04-21, 00:55:05,VALID,1000.43,VALID,0,VALID,89.5641,VALID,0,VALID,23.8573,VALID,138,VALID,0,
2010-04-21, 00:56:05,VALID,1000.41,VALID,0,VALID,89.9914,VALID,0,VALID,23.8573,VALID,138,VALID,0,
2010-04-21, 00:57:05,VALID,1000.37,VALID,0,VALID,90.1287,VALID,0,VALID,23.8768,VALID,138,VALID,0,
2010-04-21, 00:58:05,VALID,1000.36,VALID,0,VALID,90.1897,VALID,0,VALID,23.8573,VALID,138,VALID,0,
2010-04-21, 00:59:05,VALID,1000.34,VALID,0,VALID,90.266,VALID,0,VALID,23.8768,VALID,138,VALID,0,
2010-04-21, 01:00:05,VALID,1000.31,VALID,0,VALID,90.3042,VALID,0,VALID,23.875,VALID,138,VALID,0,
2010-04-21, 01:01:05,VALID,1000.27,VALID,0,VALID,90.2126,VALID,0,VALID,23.8963,VALID,138,VALID,0,
2010-04-21, 01:02:05,VALID,1000.27,VALID,0,VALID,90.205,VALID,0,VALID,23.9159,VALID,131,VALID,0,
2010-04-21, 01:03:05,VALID,1000.25,VALID,0,VALID,90.1058,VALID,0,VALID,23.9159,VALID,131,VALID,0,
2010-04-21, 01:04:05,VALID,1000.26,VALID,0,VALID,90.1821,VALID,0,VALID,23.9354,VALID,131,VALID,0,
2010-04-21, 01:05:04,VALID,1000.27,VALID,0,VALID,90.144,VALID,0,VALID,23.9354,VALID,131,VALID,0,
2010-04-21, 01:06:04,VALID,1000.23,VALID,0,VALID,89.9303,VALID,0,VALID,23.9549,VALID,131,VALID,0,
2010-04-21, 01:07:04,VALID,1000.22,VALID,0,VALID,89.9685,VALID,0,VALID,23.9549,VALID,131,VALID,0,
2010-04-21, 01:08:04,VALID,1000.23,VALID,0,VALID,90.06,VALID,0,VALID,23.9354,VALID,109,VALID,0,
2010-04-21, 01:09:04,VALID,1000.23,VALID,0,VALID,90.0753,VALID,0,VALID,23.9354,VALID,109,VALID,0,
2010-04-21, 01:10:04,VALID,1000.16,VALID,0,VALID,90.0219,VALID,0,VALID,23.9354,VALID,109,VALID,0,
2010-04-21, 01:11:04,VALID,1000.16,VALID,0,VALID,89.8311,VALID,0,VALID,23.9159,VALID,108,VALID,0,
2010-04-21, 01:12:04,VALID,1000.16,VALID,0,VALID,89.9914,VALID,0,VALID,23.8963,VALID,104,VALID,0,
2010-04-21, 01:13:04,VALID,1000.1,VALID,0,VALID,90.0524,VALID,0,VALID,23.8768,VALID,104,VALID,0,
2010-04-21, 01:14:04,VALID,1000.13,VALID,0,VALID,90.0677,VALID,0,VALID,23.8378,VALID,104,VALID,0,
2010-04-21, 01:15:04,VALID,1000.14,VALID,0,VALID,90.2279,VALID,0,VALID,23.8378,VALID,127,VALID,0,
2010-04-21, 01:16:04,VALID,1000.14,VALID,0,VALID,90.4034,VALID,0,VALID,23.8378,VALID,133,VALID,0,
2010-04-21, 01:17:04,VALID,1000.18,VALID,0,VALID,90.3805,VALID,0,VALID,23.8183,VALID,133,VALID,0,
2010-04-21, 01:18:04,VALID,1000.18,VALID,0,VALID,90.3957,VALID,0,VALID,23.8378,VALID,133,VALID,0,
2010-04-21, 01:19:04,VALID,1000.19,VALID,0,VALID,90.4415,VALID,0,VALID,23.8183,VALID,133,VALID,0,
2010-04-21, 01:20:04,VALID,1000.23,VALID,0,VALID,90.4568,VALID,0,VALID,23.8165,VALID,133,VALID,0,
2010-04-21, 01:21:04,VALID,1000.22,VALID,0,VALID,90.4415,VALID,0,VALID,23.8378,VALID,133,VALID,0,
2010-04-21, 01:22:04,VALID,1000.2,VALID,0,VALID,90.3881,VALID,0,VALID,23.8183,VALID,133,VALID,0,
2010-04-21, 01:23:04,VALID,1000.19,VALID,0,VALID,90.4568,VALID,0,VALID,23.8183,VALID,133,VALID,0,
2010-04-21, 01:24:04,VALID,1000.17,VALID,0,VALID,90.3423,VALID,0,VALID,23.7988,VALID,132,VALID,0,
2010-04-21, 01:25:04,VALID,1000.17,VALID,0,VALID,90.3728,VALID,0,VALID,23.7988,VALID,121,VALID,0,
2010-04-21, 01:26:04,VALID,1000.15,VALID,0,VALID,90.4873,VALID,0,VALID,23.7988,VALID,120,VALID,0,
2010-04-21, 01:27:04,VALID,1000.1,VALID,0,VALID,90.678,VALID,0,VALID,23.7988,VALID,120,VALID,0,
2010-04-21, 01:28:04,VALID,1000.07,VALID,0,VALID,90.6857,VALID,0,VALID,23.8183,VALID,89,VALID,0,
2010-04-21, 01:29:04,VALID,1000.05,VALID,0,VALID,90.5102,VALID,0,VALID,23.7988,VALID,86,VALID,0,
2010-04-21, 01:30:04,VALID,1000.03,VALID,0,VALID,90.2203,VALID,0,VALID,23.7988,VALID,89,VALID,0,
2010-04-21, 01:31:04,VALID,1000.07,VALID,0,VALID,90.3118,VALID,0,VALID,23.7793,VALID,81,VALID,0,
2010-04-21, 01:32:04,VALID,1000.04,VALID,0,VALID,90.3957,VALID,0,VALID,23.7793,VALID,76,VALID,0,
2010-04-21, 01:33:04,VALID,1000.03,VALID,0,VALID,90.4797,VALID,0,VALID,23.7793,VALID,59,VALID,0,
2010-04-21, 01:34:04,VALID,1000.03,VALID,0,VALID,90.4568,VALID,0,VALID,23.7597,VALID,58,VALID,0,
2010-04-21, 01:35:04,VALID,1000.02,VALID,0,VALID,90.4491,VALID,0,VALID,23.7402,VALID,58,VALID,0,
2010-04-21, 01:36:04,VALID,1000.03,VALID,0,VALID,90.556,VALID,0,VALID,23.7012,VALID,58,VALID,0,
2010-04-21, 01:37:04,VALID,1000.03,VALID,0,VALID,90.5941,VALID,0,VALID,23.6817,VALID,59,VALID,0,
2010-04-21, 01:38:04,VALID,1000.04,VALID,0,VALID,90.6323,VALID,0,VALID,23.6604,VALID,60,VALID,0,
2010-04-21, 01:39:04,VALID,1000.03,VALID,0,VALID,90.6246,VALID,0,VALID,23.6427,VALID,60,VALID,0,
2010-04-21, 01:40:04,VALID,1000.03,VALID,0,VALID,90.7925,VALID,0,VALID,23.6427,VALID,60,VALID,0,
2010-04-21, 01:41:04,VALID,999.995,VALID,0,VALID,90.7849,VALID,0,VALID,23.6427,VALID,60,VALID,0,
2010-04-21, 01:42:04,VALID,999.996,VALID,0,VALID,90.7391,VALID,0,VALID,23.6232,VALID,60,VALID,0,
2010-04-21, 01:43:04,VALID,999.984,VALID,0,VALID,90.8306,VALID,0,VALID,23.6232,VALID,60,VALID,0,
2010-04-21, 01:44:04,VALID,999.953,VALID,0,VALID,90.9527,VALID,0,VALID,23.6427,VALID,60,VALID,0,
2010-04-21, 01:45:04,VALID,999.943,VALID,0,VALID,90.9146,VALID,0,VALID,23.6427,VALID,60,VALID,0,
2010-04-21, 01:46:04,VALID,999.958,VALID,0,VALID,91.0748,VALID,0,VALID,23.6427,VALID,60,VALID,0,
2010-04-21, 01:47:04,VALID,999.924,VALID,0,VALID,91.0366,VALID,0,VALID,23.6427,VALID,60,VALID,0,
2010-04-21, 01:48:04,VALID,999.92,VALID,0,VALID,90.9756,VALID,0,VALID,23.6232,VALID,60,VALID,0,
2010-04-21, 01:49:04,VALID,999.932,VALID,0,VALID,90.9603,VALID,0,VALID,23.6036,VALID,60,VALID,0,
2010-04-21, 01:50:04,VALID,999.919,VALID,0,VALID,91.0061,VALID,0,VALID,23.5841,VALID,60,VALID,0,
2010-04-21, 01:51:04,VALID,999.917,VALID,0,VALID,91.1358,VALID,0,VALID,23.5646,VALID,60,VALID,0,
2010-04-21, 01:52:04,VALID,999.919,VALID,0,VALID,91.3189,VALID,0,VALID,23.5646,VALID,60,VALID,0,
2010-04-21, 01:53:04,VALID,999.947,VALID,0,VALID,91.4334,VALID,0,VALID,23.5451,VALID,60,VALID,0,
2010-04-21, 01:54:04,VALID,999.955,VALID,0,VALID,91.5249,VALID,0,VALID,23.5646,VALID,60,VALID,0,
2010-04-21, 01:55:04,VALID,999.945,VALID,0,VALID,91.5554,VALID,0,VALID,23.5433,VALID,60,VALID,0,
2010-04-21, 01:56:04,VALID,999.944,VALID,0,VALID,91.6394,VALID,0,VALID,23.5646,VALID,60,VALID,0,
2010-04-21, 01:57:04,VALID,999.944,VALID,0,VALID,91.7614,VALID,0,VALID,23.5646,VALID,60,VALID,0,
2010-04-21, 01:58:04,VALID,999.919,VALID,0,VALID,91.7538,VALID,0,VALID,23.5646,VALID,71,VALID,0,
2010-04-21, 01:59:04,VALID,999.947,VALID,0,VALID,91.8759,VALID,0,VALID,23.5841,VALID,105,VALID,0,
2010-04-21, 02:00:04,VALID,999.901,VALID,0,VALID,91.5326,VALID,0,VALID,23.5823,VALID,112,VALID,0,
2010-04-21, 02:01:04,VALID,999.874,VALID,0,VALID,91.5326,VALID,0,VALID,23.6036,VALID,120,VALID,0,
2010-04-21, 02:02:04,VALID,999.877,VALID,0,VALID,91.4563,VALID,0,VALID,23.6232,VALID,120,VALID,0,
2010-04-21, 02:03:04,VALID,999.826,VALID,0,VALID,91.3418,VALID,0,VALID,23.6427,VALID,130,VALID,0,
2010-04-21, 02:04:04,VALID,999.831,VALID,0,VALID,91.1282,VALID,0,VALID,23.6409,VALID,130,VALID,0,
2010-04-21, 02:05:04,VALID,999.837,VALID,0,VALID,91.1053,VALID,0,VALID,23.6604,VALID,124,VALID,0,
2010-04-21, 02:06:04,VALID,999.799,VALID,0,VALID,90.884,VALID,0,VALID,23.7012,VALID,114,VALID,0,
2010-04-21, 02:07:04,VALID,999.794,VALID,0,VALID,90.6628,VALID,0,VALID,23.6622,VALID,113,VALID,0,
2010-04-21, 02:08:04,VALID,999.802,VALID,0,VALID,90.6399,VALID,0,VALID,23.6622,VALID,113,VALID,0,
2010-04-21, 02:09:04,VALID,999.785,VALID,0,VALID,90.6399,VALID,0,VALID,23.6019,VALID,113,VALID,0,
2010-04-21, 02:10:04,VALID,999.786,VALID,0,VALID,90.7085,VALID,0,VALID,23.6019,VALID,109,VALID,0,
2010-04-21, 02:11:04,VALID,999.76,VALID,0,VALID,90.7696,VALID,0,VALID,23.6036,VALID,105,VALID,0,
2010-04-21, 02:12:04,VALID,999.738,VALID,0,VALID,90.8764,VALID,0,VALID,23.5841,VALID,105,VALID,0,
2010-04-21, 02:13:04,VALID,999.745,VALID,0,VALID,90.9451,VALID,0,VALID,23.5646,VALID,105,VALID,0,
2010-04-21, 02:14:04,VALID,999.734,VALID,0,VALID,91.1053,VALID,0,VALID,23.5451,VALID,105,VALID,0,
2010-04-21, 02:15:04,VALID,999.682,VALID,0,VALID,91.1053,VALID,0,VALID,23.5256,VALID,105,VALID,0,
2010-04-21, 02:16:04,VALID,999.692,VALID,0,VALID,91.1434,VALID,0,VALID,23.4848,VALID,105,VALID,0,
2010-04-21, 02:17:04,VALID,999.652,VALID,0,VALID,91.2731,VALID,0,VALID,23.4866,VALID,105,VALID,0,
2010-04-21, 02:18:04,VALID,999.674,VALID,0,VALID,91.4486,VALID,0,VALID,23.4866,VALID,105,VALID,0,
2010-04-21, 02:19:04,VALID,999.652,VALID,0,VALID,91.5707,VALID,0,VALID,23.4866,VALID,105,VALID,0,
2010-04-21, 02:20:04,VALID,999.665,VALID,0,VALID,91.6775,VALID,0,VALID,23.4671,VALID,105,VALID,0,
2010-04-21, 02:21:04,VALID,999.649,VALID,0,VALID,91.7157,VALID,0,VALID,23.4458,VALID,105,VALID,0,
2010-04-21, 02:22:04,VALID,999.634,VALID,0,VALID,91.9445,VALID,0,VALID,23.4866,VALID,70,VALID,0,
2010-04-21, 02:23:04,VALID,999.619,VALID,0,VALID,92.0437,VALID,0,VALID,23.4848,VALID,70,VALID,0,
2010-04-21, 02:24:04,VALID,999.606,VALID,0,VALID,91.9827,VALID,0,VALID,23.5061,VALID,69,VALID,0,
2010-04-21, 02:25:04,VALID,999.586,VALID,0,VALID,91.914,VALID,0,VALID,23.4866,VALID,68,VALID,0,
2010-04-21, 02:26:04,VALID,999.552,VALID,0,VALID,91.7233,VALID,0,VALID,23.4458,VALID,68,VALID,0,
2010-04-21, 02:27:04,VALID,999.526,VALID,0,VALID,92.0132,VALID,0,VALID,23.4475,VALID,68,VALID,0,
2010-04-21, 02:28:04,VALID,999.576,VALID,0,VALID,92.0056,VALID,0,VALID,23.4458,VALID,68,VALID,0,
2010-04-21, 02:29:04,VALID,999.562,VALID,0,VALID,91.9522,VALID,0,VALID,23.428,VALID,68,VALID,0,
2010-04-21, 02:30:04,VALID,999.533,VALID,0,VALID,91.8377,VALID,0,VALID,23.3872,VALID,68,VALID,0,
2010-04-21, 02:31:04,VALID,999.562,VALID,0,VALID,91.8148,VALID,0,VALID,23.3287,VALID,68,VALID,0,
2010-04-21, 02:32:04,VALID,999.545,VALID,0,VALID,91.9064,VALID,0,VALID,23.35,VALID,68,VALID,0,
2010-04-21, 02:33:04,VALID,999.578,VALID,0,VALID,91.914,VALID,0,VALID,23.3305,VALID,68,VALID,0,
2010-04-21, 02:34:04,VALID,999.547,VALID,0,VALID,91.9522,VALID,0.112286,VALID,23.2897,VALID,68,VALID,0,
2010-04-21, 02:35:04,VALID,999.529,VALID,0,VALID,92.1811,VALID,0,VALID,23.311,VALID,69,VALID,0,
2010-04-21, 02:36:04,VALID,999.526,VALID,0,VALID,92.2345,VALID,0,VALID,23.311,VALID,69,VALID,0,
2010-04-21, 02:37:04,VALID,999.499,VALID,0,VALID,92.3108,VALID,0,VALID,23.3092,VALID,68,VALID,0,
2010-04-21, 02:38:04,VALID,999.5,VALID,0,VALID,92.3947,VALID,0.112286,VALID,23.3305,VALID,69,VALID,0,
2010-04-21, 02:39:04,VALID,999.466,VALID,0,VALID,92.5168,VALID,0,VALID,23.35,VALID,74,VALID,0,
2010-04-21, 02:40:04,VALID,999.445,VALID,0,VALID,92.532,VALID,0,VALID,23.3677,VALID,79,VALID,0,
2010-04-21, 02:41:04,VALID,999.454,VALID,0,VALID,92.5244,VALID,0,VALID,23.4067,VALID,79,VALID,0,
2010-04-21, 02:42:04,VALID,999.439,VALID,0,VALID,92.3718,VALID,0,VALID,23.4067,VALID,79,VALID,0,
2010-04-21, 02:43:04,VALID,999.415,VALID,0,VALID,92.3413,VALID,0.112286,VALID,23.4475,VALID,79,VALID,0,
2010-04-21, 02:44:04,VALID,999.429,VALID,0,VALID,92.2879,VALID,0,VALID,23.4458,VALID,79,VALID,0,
2010-04-21, 02:45:04,VALID,999.385,VALID,0,VALID,92.1811,VALID,0,VALID,23.4671,VALID,79,VALID,0,
2010-04-21, 02:46:04,VALID,999.401,VALID,0,VALID,92.12,VALID,0,VALID,23.4458,VALID,84,VALID,0,
2010-04-21, 02:47:04,VALID,999.377,VALID,0,VALID,91.9827,VALID,0,VALID,23.4671,VALID,99,VALID,0,
2010-04-21, 02:48:04,VALID,999.408,VALID,0,VALID,91.8454,VALID,0,VALID,23.4671,VALID,100,VALID,0,
2010-04-21, 02:49:04,VALID,999.39,VALID,0,VALID,91.8225,VALID,0,VALID,23.4475,VALID,100,VALID,0,
2010-04-21, 02:50:04,VALID,999.445,VALID,0,VALID,91.7843,VALID,0,VALID,23.4263,VALID,100,VALID,0,
2010-04-21, 02:51:04,VALID,999.466,VALID,0,VALID,91.7538,VALID,0,VALID,23.428,VALID,100,VALID,0,
2010-04-21, 02:52:04,VALID,999.427,VALID,0,VALID,91.7691,VALID,0,VALID,23.4067,VALID,100,VALID,0,
2010-04-21, 02:53:04,VALID,999.467,VALID,0,VALID,91.8225,VALID,0,VALID,23.428,VALID,100,VALID,0,
2010-04-21, 02:54:04,VALID,999.456,VALID,0,VALID,91.8454,VALID,0,VALID,23.3872,VALID,100,VALID,0,
2010-04-21, 02:55:04,VALID,999.459,VALID,0,VALID,91.8454,VALID,0,VALID,23.3872,VALID,100,VALID,0,
2010-04-21, 02:56:04,VALID,999.451,VALID,0,VALID,91.8606,VALID,0,VALID,23.3677,VALID,100,VALID,0,
2010-04-21, 02:57:04,VALID,999.481,VALID,0,VALID,91.9064,VALID,0,VALID,23.389,VALID,100,VALID,0,
2010-04-21, 02:58:04,VALID,999.487,VALID,0,VALID,91.8988,VALID,0,VALID,23.3695,VALID,100,VALID,0,
2010-04-21, 02:59:04,VALID,999.479,VALID,0,VALID,91.9369,VALID,0,VALID,23.35,VALID,100,VALID,0,
2010-04-21, 03:00:04,VALID,999.489,VALID,0,VALID,92.0209,VALID,0,VALID,23.3695,VALID,100,VALID,0,
2010-04-21, 03:01:04,VALID,999.482,VALID,0,VALID,91.9903,VALID,0,VALID,23.35,VALID,100,VALID,0,
2010-04-21, 03:02:04,VALID,999.494,VALID,0,VALID,92.1048,VALID,0,VALID,23.35,VALID,100,VALID,0,
2010-04-21, 03:03:04,VALID,999.485,VALID,0,VALID,92.1734,VALID,0,VALID,23.3695,VALID,100,VALID,0,
2010-04-21, 03:04:04,VALID,999.499,VALID,0,VALID,92.12,VALID,0,VALID,23.3482,VALID,100,VALID,0,
2010-04-21, 03:05:04,VALID,999.465,VALID,0,VALID,92.1734,VALID,0,VALID,23.35,VALID,100,VALID,0,
2010-04-21, 03:06:04,VALID,999.48,VALID,0,VALID,92.3413,VALID,0,VALID,23.3695,VALID,100,VALID,0,
2010-04-21, 03:07:04,VALID,999.475,VALID,0,VALID,92.3566,VALID,0,VALID,23.3677,VALID,123,VALID,0,
2010-04-21, 03:08:04,VALID,999.474,VALID,0,VALID,92.3794,VALID,0,VALID,23.4085,VALID,123,VALID,0,
2010-04-21, 03:09:04,VALID,999.49,VALID,0,VALID,92.2879,VALID,0,VALID,23.428,VALID,123,VALID,0,
2010-04-21, 03:10:04,VALID,999.471,VALID,0,VALID,92.2345,VALID,0,VALID,23.4475,VALID,123,VALID,0,
2010-04-21, 03:11:04,VALID,999.491,VALID,0,VALID,92.1429,VALID,0,VALID,23.4475,VALID,123,VALID,0,
2010-04-21, 03:12:04,VALID,999.473,VALID,0,VALID,91.9903,VALID,0,VALID,23.4475,VALID,123,VALID,0,
2010-04-21, 03:13:04,VALID,999.456,VALID,0,VALID,91.8454,VALID,0,VALID,23.428,VALID,123,VALID,0,
2010-04-21, 03:14:04,VALID,999.431,VALID,0,VALID,91.8377,VALID,0,VALID,23.428,VALID,123,VALID,0,
2010-04-21, 03:15:04,VALID,999.431,VALID,0,VALID,91.9064,VALID,0,VALID,23.428,VALID,123,VALID,0,
2010-04-21, 03:16:04,VALID,999.426,VALID,0,VALID,91.9598,VALID,0,VALID,23.4085,VALID,123,VALID,0,
2010-04-21, 03:17:04,VALID,999.396,VALID,0,VALID,91.9903,VALID,0,VALID,23.428,VALID,123,VALID,0,
2010-04-21, 03:18:04,VALID,999.409,VALID,0,VALID,91.9598,VALID,0,VALID,23.428,VALID,123,VALID,0,
2010-04-21, 03:19:04,VALID,999.387,VALID,0,VALID,91.853,VALID,0,VALID,23.4085,VALID,123,VALID,0,
2010-04-21, 03:20:04,VALID,999.415,VALID,0,VALID,91.7767,VALID,0,VALID,23.3695,VALID,123,VALID,0,
2010-04-21, 03:21:04,VALID,999.412,VALID,0,VALID,91.7233,VALID,0,VALID,23.3092,VALID,123,VALID,0,
2010-04-21, 03:22:04,VALID,999.404,VALID,0,VALID,91.9674,VALID,0,VALID,23.3305,VALID,123,VALID,0,
2010-04-21, 03:23:04,VALID,999.404,VALID,0,VALID,92.059,VALID,0,VALID,23.3305,VALID,120,VALID,0,
2010-04-21, 03:24:04,VALID,999.4,VALID,0,VALID,91.9827,VALID,0,VALID,23.311,VALID,120,VALID,0,
2010-04-21, 03:25:04,VALID,999.4,VALID,0,VALID,92.0514,VALID,0,VALID,23.2915,VALID,120,VALID,0,
2010-04-21, 03:26:04,VALID,999.397,VALID,0,VALID,92.1506,VALID,0,VALID,23.2915,VALID,120,VALID,0,
2010-04-21, 03:27:04,VALID,999.385,VALID,0,VALID,92.1277,VALID,0,VALID,23.2915,VALID,120,VALID,0,
2010-04-21, 03:28:04,VALID,999.386,VALID,0,VALID,92.1582,VALID,0,VALID,23.2915,VALID,120,VALID,0,
2010-04-21, 03:29:04,VALID,999.416,VALID,0,VALID,92.2116,VALID,0,VALID,23.2702,VALID,120,VALID,0,
2010-04-21, 03:30:04,VALID,999.423,VALID,0,VALID,92.3031,VALID,0,VALID,23.2702,VALID,120,VALID,0,
2010-04-21, 03:31:04,VALID,999.45,VALID,0,VALID,92.3184,VALID,0,VALID,23.2897,VALID,120,VALID,0,
2010-04-21, 03:32:04,VALID,999.456,VALID,0,VALID,92.3642,VALID,0,VALID,23.2897,VALID,120,VALID,0,
2010-04-21, 03:33:04,VALID,999.463,VALID,0,VALID,92.4252,VALID,0,VALID,23.3305,VALID,120,VALID,0,
2010-04-21, 03:34:04,VALID,999.5,VALID,0,VALID,92.4786,VALID,0,VALID,23.35,VALID,120,VALID,0,
2010-04-21, 03:35:04,VALID,999.504,VALID,0,VALID,92.5397,VALID,0,VALID,23.3695,VALID,120,VALID,0,
2010-04-21, 03:36:04,VALID,999.512,VALID,0,VALID,92.5626,VALID,0,VALID,23.389,VALID,120,VALID,0,
2010-04-21, 03:37:04,VALID,999.519,VALID,0,VALID,92.5778,VALID,0,VALID,23.428,VALID,120,VALID,0,
2010-04-21, 03:38:04,VALID,999.515,VALID,0,VALID,92.5931,VALID,0,VALID,23.4263,VALID,120,VALID,0,
2010-04-21, 03:39:04,VALID,999.517,VALID,0,VALID,92.5626,VALID,0,VALID,23.4671,VALID,120,VALID,0,
2010-04-21, 03:40:04,VALID,999.513,VALID,0,VALID,92.5397,VALID,0,VALID,23.4671,VALID,120,VALID,0,
2010-04-21, 03:41:04,VALID,999.548,VALID,0,VALID,92.4634,VALID,0,VALID,23.4653,VALID,120,VALID,0,
2010-04-21, 03:42:04,VALID,999.55,VALID,0,VALID,92.3947,VALID,0,VALID,23.4866,VALID,120,VALID,0,
2010-04-21, 03:43:04,VALID,999.572,VALID,0,VALID,92.3184,VALID,0,VALID,23.4671,VALID,120,VALID,0,
2010-04-21, 03:44:04,VALID,999.536,VALID,0,VALID,92.3489,VALID,0,VALID,23.4671,VALID,120,VALID,0,
2010-04-21, 03:45:04,VALID,999.577,VALID,0,VALID,92.2803,VALID,0,VALID,23.4475,VALID,120,VALID,0,
2010-04-21, 03:46:04,VALID,999.582,VALID,0,VALID,92.3794,VALID,0,VALID,23.4475,VALID,120,VALID,0,
2010-04-21, 03:47:04,VALID,999.585,VALID,0,VALID,92.4405,VALID,0,VALID,23.4671,VALID,120,VALID,0,
2010-04-21, 03:48:04,VALID,999.557,VALID,0,VALID,92.3947,VALID,0,VALID,23.4866,VALID,135,VALID,0,
2010-04-21, 03:49:04,VALID,999.536,VALID,0,VALID,92.2955,VALID,0,VALID,23.4866,VALID,135,VALID,0,
2010-04-21, 03:50:04,VALID,999.528,VALID,0,VALID,92.1582,VALID,0,VALID,23.5469,VALID,135,VALID,0,
2010-04-21, 03:51:04,VALID,999.554,VALID,0,VALID,91.9522,VALID,0,VALID,23.5256,VALID,135,VALID,0,
2010-04-21, 03:52:04,VALID,999.531,VALID,0,VALID,91.7385,VALID,0,VALID,23.5061,VALID,135,VALID,0,
2010-04-21, 03:53:04,VALID,999.527,VALID,0,VALID,91.6623,VALID,0,VALID,23.5061,VALID,135,VALID,0,
2010-04-21, 03:54:04,VALID,999.554,VALID,0,VALID,91.6546,VALID,0,VALID,23.5256,VALID,135,VALID,0,
2010-04-21, 03:55:04,VALID,999.557,VALID,0,VALID,91.6623,VALID,0,VALID,23.5043,VALID,135,VALID,0,
2010-04-21, 03:56:04,VALID,999.561,VALID,0,VALID,91.6012,VALID,0,VALID,23.5451,VALID,135,VALID,0,
2010-04-21, 03:57:04,VALID,999.581,VALID,0,VALID,91.4791,VALID,0,VALID,23.5451,VALID,135,VALID,0,
2010-04-21, 03:58:04,VALID,999.598,VALID,0,VALID,91.3494,VALID,0,VALID,23.5646,VALID,135,VALID,0,
2010-04-21, 03:59:04,VALID,999.638,VALID,0,VALID,91.3723,VALID,0,VALID,23.5646,VALID,135,VALID,0,
2010-04-21, 04:00:04,VALID,999.637,VALID,0,VALID,91.2731,VALID,0,VALID,23.6036,VALID,135,VALID,0,